Torna al catalogo

SL-3 DEB

AttivoPO
NORAD 25255·DEBRIS·🇷🇺 Russia

Lanciato May 14, 1981 da Plesetsk Cosmodrome

Loading…

Prossimi Passaggi (prossime 24 ore)

TLE

AggiornatoSource: Space-Track

Epoca: Sep 14, 2026, 06:53 UTC

1 25255U 81043D   26257.28720201 -.00000070  00000-0 -47555-4 0  9998
2 25255  81.2934  94.0567 0044970 338.1339 143.8097 14.08689948534532

Traccia SL-3 DEB in tempo reale con AllMySat

Download on the App Store